Date,TemperatureHighF,TemperatureAvgF,TemperatureLowF,DewpointHighF,DewpointAvgF,DewpointLowF,HumidityHigh,HumidityAvg,HumidityLow,PressureMaxIn,PressureMinIn,WindSpeedMaxMPH,WindSpeedAvgMPH,GustSpeedMaxMPH,PrecipitationSumIn
2013-1-1,47,41,36,46,37,34,96,86,67,30.09,29.52,3,1,11,0.05
2013-1-2,51,44,36,50,43,34,98,93,85,30.36,30.08,3,1,9,0.00
2013-1-3,53,51,48,50,49,47,98,92,87,30.64,30.35,4,1,15,0.00
2013-1-4,50,49,46,47,45,43,95,88,80,30.67,30.62,4,1,10,0.00
2013-1-5,51,47,42,49,46,41,99,95,88,30.63,30.54,3,0,6,0.00
2013-1-6,47,45,41,46,44,41,99,97,93,30.54,30.41,2,0,6,0.00
2013-1-7,45,45,45,44,43,43,95,95,93,30.41,30.40,2,1,7,0.00
2013-1-13,38,34,32,31,30,29,90,84,72,30.17,30.12,3,1,10,0.00
2013-1-14,37,33,30,36,32,28,99,95,87,30.13,29.67,5,1,12,0.24
2013-1-15,41,33,23,34,30,22,97,88,74,29.89,29.66,6,1,15,0.00
2013-1-16,35,28,22,32,26,21,99,96,85,30.04,29.83,2,0,5,0.00
2013-1-17,35,30,25,32,28,24,99,92,76,30.09,29.87,2,0,6,0.00
2013-1-18,35,31,28,29,28,26,96,89,74,29.87,29.43,6,0,10,0.00
2013-1-19,33,31,30,32,29,26,97,93,85,29.50,29.40,4,1,15,0.00
2013-1-20,32,30,28,31,28,25,97,93,84,29.48,29.30,4,1,11,0.00
2013-1-21,38,31,27,33,29,26,97,92,78,29.52,29.27,2,0,4,0.00
2013-1-22,36,30,21,34,29,21,99,96,89,29.68,29.51,4,1,11,0.07
2013-1-23,37,34,33,34,32,30,97,92,86,29.82,29.68,4,1,13,0.19
2013-1-24,35,33,31,31,30,28,94,88,81,30.16,29.82,2,0,6,0.02
2013-1-25,38,34,30,36,30,27,96,84,74,30.14,29.55,4,1,16,0.04
2013-1-26,48,42,35,43,39,35,99,89,71,29.85,29.54,5,1,14,0.13
2013-1-27,51,46,38,50,40,35,98,82,57,29.64,29.28,5,2,17,0.20
2013-1-28,51,44,36,48,41,34,96,88,77,29.83,29.53,8,2,21,0.14
2013-1-29,56,53,48,53,50,45,98,91,80,29.68,29.56,6,2,18,0.07
2013-1-30,55,50,44,53,43,37,96,79,55,30.07,29.52,10,3,21,0.21
2013-1-31,52,48,44,46,41,38,95,78,63,30.07,29.81,7,2,20,0.13
2013-2-1,46,42,36,42,39,35,97,90,75,29.87,29.48,3,1,10,0.20
2013-2-2,46,38,26,38,30,23,95,75,56,30.28,29.63,6,2,15,0.01
2013-2-3,49,40,26,46,37,24,93,88,79,30.28,29.93,4,1,15,0.00
2013-2-4,52,48,43,47,40,34,90,75,54,29.98,29.74,7,2,18,0.00
2013-2-5,45,40,35,38,32,26,94,73,48,29.74,29.37,8,2,21,0.06
2013-2-6,42,40,35,38,32,26,91,75,63,30.10,29.40,7,3,23,0.02
2013-2-7,44,37,29,35,31,26,95,80,61,30.14,30.01,3,1,8,0.00
2013-2-8,45,37,31,36,34,30,99,87,66,30.17,30.05,4,1,10,0.01
2013-2-9,38,36,33,37,34,31,99,96,90,30.18,29.86,2,0,4,0.09
2013-2-10,42,39,34,41,38,34,99,98,95,29.86,29.24,4,1,9,0.48
2013-2-11,35,34,33,34,33,32,99,97,95,29.79,29.28,3,1,8,0.11
2013-2-12,35,34,32,32,30,29,98,88,82,30.15,29.79,3,0,7,0.00
2013-2-13,40,34,32,40,30,26,99,85,65,30.20,29.97,5,1,12,0.06
2013-2-14,54,46,35,47,42,33,99,88,63,30.01,29.74,5,1,13,0.07
2013-2-15,52,40,29,42,35,29,99,83,56,30.23,30.01,3,0,8,0.00
2013-2-16,55,43,34,45,37,32,96,82,54,30.26,30.20,2,0,5,0.00
2013-2-17,57,39,29,45,33,28,99,83,40,30.21,30.09,2,0,11,0.00
2013-2-18,55,38,28,40,33,27,99,84,51,30.16,30.09,3,0,8,0.00
2013-2-19,59,36,24,41,31,23,99,82,44,30.15,30.05,2,0,4,0.00
2013-2-20,46,36,27,40,31,26,99,83,56,30.26,30.11,6,1,12,0.01
2013-2-21,37,34,28,27,23,20,79,66,55,30.26,30.19,4,2,14,0.00
2013-2-23,38,34,29,30,26,24,91,75,63,30.23,30.14,4,2,11,0.00
2013-2-24,36,33,30,29,28,25,90,79,68,30.30,30.20,7,2,15,0.00
2013-2-25,39,37,33,36,33,27,93,87,77,30.39,30.27,4,2,17,0.00
2013-2-26,40,38,36,39,37,34,99,96,90,30.57,30.38,4,2,11,0.02
2013-2-27,44,37,34,37,34,31,99,90,71,30.58,30.48,4,2,11,0.00
2013-2-28,47,39,32,37,34,31,96,83,65,30.49,30.33,4,2,15,0.00
2013-3-1,44,39,35,41,34,30,99,82,65,30.42,30.37,4,1,12,0.02
2013-3-2,43,36,25,33,30,24,95,78,66,30.42,30.29,4,1,9,0.00
2013-3-3,46,35,22,36,31,21,98,86,68,30.30,30.10,3,0,8,0.00
2013-3-4,57,40,27,39,33,26,99,80,47,30.10,29.75,3,1,9,0.01
2013-3-5,67,45,27,46,37,26,99,76,43,29.75,29.58,4,0,8,0.00
2013-3-6,59,49,38,45,42,35,92,77,60,29.58,29.49,2,0,5,0.00
2013-3-7,52,48,45,50,47,43,99,97,91,29.51,29.36,2,0,5,0.18
2013-3-8,52,49,49,51,49,48,99,99,99,29.50,29.38,1,0,4,0.25
2013-3-10,34,33,33,28,28,27,81,80,78,29.75,29.73,5,2,13,0.00
2013-3-11,34,31,28,28,22,17,80,70,53,29.77,29.71,9,4,24,0.00
2013-3-12,44,34,27,31,23,17,86,65,37,29.84,29.74,8,3,20,0.00
2013-3-13,46,37,26,31,27,24,92,69,44,29.97,29.80,5,2,14,0.00
2013-3-14,51,35,22,35,25,20,99,69,33,30.04,29.93,3,1,9,0.00
2013-3-15,48,42,35,43,39,28,97,87,74,29.93,29.54,7,2,17,0.33
2013-3-16,52,43,39,44,41,37,98,90,68,29.54,29.27,8,2,19,0.52
2013-3-17,43,37,30,42,36,30,99,95,89,29.33,29.21,3,0,7,0.14
2013-3-18,47,37,28,41,35,28,99,93,75,29.36,29.21,3,0,5,0.06
2013-3-19,52,40,31,41,36,30,97,87,60,29.51,29.36,2,0,8,0.04
2013-3-20,42,38,31,39,35,30,99,92,81,30.00,29.51,4,1,8,0.00
2013-3-21,45,40,35,36,34,31,96,80,63,30.01,29.89,4,1,12,0.20
2013-3-22,49,39,35,37,36,34,98,89,64,29.89,29.70,4,2,17,0.28
2013-3-23,37,34,33,36,33,32,99,96,94,29.87,29.72,4,1,11,0.43
2013-3-24,33,32,31,32,28,24,96,84,67,29.95,29.85,4,0,11,0.00
2013-3-25,35,33,32,27,25,23,79,71,65,29.97,29.93,6,1,17,0.01
2013-3-26,36,34,32,26,24,23,78,69,62,29.94,29.89,4,2,15,0.00
2013-3-27,43,35,30,28,25,23,84,67,53,29.90,29.84,5,1,13,0.00
2013-3-28,46,36,28,32,26,21,92,68,47,29.95,29.85,4,1,12,0.00
2013-3-29,50,36,24,31,24,20,90,64,35,29.93,29.77,4,1,13,0.00
2013-3-30,45,36,28,31,27,24,88,71,50,29.96,29.78,4,1,13,0.00
2013-3-31,49,35,21,33,24,20,96,67,39,29.97,29.88,3,1,10,0.00
2013-4-1,48,37,30,30,26,23,85,68,40,29.88,29.81,4,2,15,0.00
2013-4-2,53,39,29,32,24,14,90,58,24,30.06,29.87,6,2,17,0.00
2013-4-3,47,36,27,31,25,22,93,66,42,30.06,29.99,7,2,18,0.00
2013-4-4,39,36,33,32,28,23,86,74,57,29.99,29.89,7,3,18,0.00
2013-4-5,48,39,34,30,27,21,81,64,36,30.12,29.89,7,3,21,0.00
2013-4-6,57,40,27,33,28,25,96,66,31,30.28,30.11,6,1,12,0.00
2013-4-7,56,41,26,34,26,17,94,62,24,30.29,29.88,3,1,9,0.00
2013-4-8,56,44,38,35,31,28,80,61,36,29.87,29.54,4,2,11,0.00
2013-4-9,50,43,38,45,39,34,98,86,75,29.55,29.37,3,1,10,0.12
2013-4-10,43,40,37,40,37,36,94,91,86,29.71,29.56,2,1,8,0.00
2013-12-12,50,47,45,49,47,45,99,99,99,30.25,30.22,4,1,9,0.00
2013-12-13,54,51,44,51,49,43,99,93,77,30.22,30.03,8,2,15,0.05
2013-12-14,52,46,37,50,45,37,99,94,84,30.33,30.08,11,3,24,0.09
2013-12-15,54,52,45,54,51,44,99,99,99,30.19,30.03,11,3,26,0.45
2013-12-16,55,52,45,55,52,44,99,99,93,30.17,29.97,13,3,25,0.43
2013-12-17,45,42,40,45,42,40,99,99,99,30.30,30.02,5,0,9,0.18
2013-12-18,50,46,40,50,46,40,99,98,93,30.02,29.30,13,3,29,0.43
2013-12-19,54,43,37,47,40,37,99,88,59,29.90,29.35,8,2,15,0.11
2013-12-20,53,44,36,49,42,35,99,91,71,30.20,29.90,15,4,26,0.05
2013-12-21,53,51,46,53,50,42,99,97,80,30.07,29.74,15,6,32,0.53
2013-12-22,54,46,40,46,41,37,94,84,64,29.96,29.74,11,3,27,0.02
2013-12-23,53,48,40,53,47,38,99,97,89,29.95,28.86,15,5,36,1.51
2013-12-24,53,46,41,53,44,39,99,93,76,29.00,28.80,17,4,37,0.90
2013-12-25,47,39,35,42,38,35,99,97,81,29.17,28.94,7,1,15,0.12
2013-12-26,50,38,32,47,38,32,99,98,81,29.48,29.16,15,1,26,0.04
2013-12-27,54,48,43,52,43,37,99,82,64,29.29,28.97,16,5,30,0.19
2013-12-28,53,40,30,41,37,30,99,88,65,29.76,29.28,6,1,11,0.00
2013-12-29,53,38,29,45,36,29,99,93,63,30.11,29.76,8,1,17,0.01
2013-12-30,53,47,40,50,46,39,99,95,75,30.01,29.66,14,3,30,0.37
2013-12-31,51,45,40,49,45,40,99,98,91,29.88,29.57,9,2,25,0.37
2014-1-1,51,48,43,51,47,42,99,99,95,29.59,29.06,11,4,26,0.67
2014-1-2,56,48,42,50,46,42,99,93,70,29.48,29.08,9,3,21,0.20